Weather History for Sioux Falls, SD

Change the Weather History Date:

Thursday, September 26, 2013

  Actual Average Record
Temperature  
Mean Temperature 74 °F 56 °F  
Max Temperature 85 °F 69 °F 94 °F (1956)
Min Temperature 63 °F 44 °F 23 °F (1984)
Degree Days  
Heating Degree Days 0 9  
Month to date heating degree days 56 132  
Since 1 July heating degree days 90 163  
Cooling Degree Days 9 1  
Month to date cooling degree days 120 59  
Year to date cooling degree days 774 684  
Growing Degree Days 24 (Base 50)    
Moisture  
Dew Point 57 °F    
Average Humidity 62    
Maximum Humidity 84    
Minimum Humidity 40    
Precipitation  
Precipitation 0.00 in 0.09 in 1.28 in (1908)
Month to date precipitation 0.29 2.44  
Year to date precipitation 20.71 21.83  
Snow  
Snow 0.00 in 0.00 in 0.00 in ()
Month to date snowfall 0.0 0.0  
Since 1 July snowfall 0.0 0.0  
Since 1 September snowfall 0.0 0.0  
Snow Depth 0.00 in    
Sea Level Pressure  
Sea Level Pressure 29.71 in    
Wind  
Wind Speed 18 mph (SSE)    
Max Wind Speed 30 mph    
Max Gust Speed 43 mph    
Visibility 10 miles    
Events      
T = Trace of Precipitation, MM = Missing Value Source: NWS Daily Summary

Daily Weather History Graph

Daily Weather History Graph

Search for Another Location

Airport:

Trip Planner

Search our weather history database for the weather conditions in past years. The results will help you decide how hot, cold, wet, or windy it might be!

Date:

Astronomy

Sep. 26, 2013 Rise Set
Actual Time 7:19 AM CDT 7:16 PM CDT
Civil Twilight 6:50 AM CDT 7:45 PM CDT
Nautical Twilight 6:17 AM CDT 8:18 PM CDT
Astronomical Twilight 5:43 AM CDT 8:52 PM CDT
Moon No Moon Rise 2:21 PM CDT (9/26)
Length of Visible Light 12h 54m
Length of Day
11h 57m
Waning Gibbous, 54% of the Moon is Illuminated
Sep 26
Waning Gibbous
Sep 26
Last Quarter
Oct 4
New
Oct 11
First Quarter
Oct 18
Full

Hourly Weather History & Observations

Time (CDT) Temp. Heat Index Dew Point Humidity Pressure Visibility Wind Dir Wind Speed Gust Speed Precip Events Conditions
12:56 AM 66.0 °F - 57.9 °F 75% 29.75 in 10.0 mi SSE 13.8 mph 27.6 mph N/A   Clear
1:56 AM 64.9 °F - 57.9 °F 78% 29.73 in 10.0 mi SE 16.1 mph - N/A   Clear
2:56 AM 64.0 °F - 57.9 °F 80% 29.72 in 10.0 mi SSE 15.0 mph 23.0 mph N/A   Clear
3:56 AM 63.0 °F - 57.0 °F 81% 29.71 in 10.0 mi SSE 16.1 mph 24.2 mph N/A   Clear
4:56 AM 63.0 °F - 57.0 °F 81% 29.70 in 10.0 mi SE 16.1 mph 23.0 mph N/A   Clear
5:56 AM 63.0 °F - 57.0 °F 81% 29.70 in 10.0 mi SSE 17.3 mph 21.9 mph N/A   Clear
6:56 AM 63.0 °F - 57.0 °F 81% 29.70 in 10.0 mi SSE 18.4 mph 27.6 mph N/A   Clear
7:56 AM 64.0 °F - 57.0 °F 78% 29.71 in 10.0 mi SSE 19.6 mph 31.1 mph N/A   Partly Cloudy
8:56 AM 66.0 °F - 57.9 °F 75% 29.72 in 10.0 mi SSE 19.6 mph 28.8 mph N/A   Clear
9:56 AM 70.0 °F - 57.9 °F 65% 29.73 in 10.0 mi SSE 16.1 mph 31.1 mph N/A   Clear
10:56 AM 75.0 °F - 57.0 °F 53% 29.73 in 10.0 mi SSE 24.2 mph 32.2 mph N/A   Clear
11:56 AM 78.1 °F - 55.9 °F 46% 29.71 in 10.0 mi South 26.5 mph 36.8 mph N/A   Clear
12:56 PM 80.1 °F 80.2 °F 55.9 °F 43% 29.70 in 10.0 mi South 25.3 mph 39.1 mph N/A   Clear
1:56 PM 82.0 °F 81.7 °F 57.0 °F 42% 29.69 in 10.0 mi South 20.7 mph 33.4 mph N/A   Clear
2:56 PM 82.9 °F 82.4 °F 57.0 °F 41% 29.69 in 10.0 mi South 19.6 mph 29.9 mph N/A   Clear
3:56 PM 84.9 °F 83.9 °F 57.0 °F 38% 29.68 in 10.0 mi South 19.6 mph 26.5 mph N/A   Clear
4:56 PM 84.9 °F 83.9 °F 57.0 °F 38% 29.68 in 10.0 mi South 21.9 mph 29.9 mph N/A   Clear
5:56 PM 84.0 °F 83.3 °F 57.0 °F 40% 29.68 in 10.0 mi South 13.8 mph - N/A   Clear
6:56 PM 82.0 °F 81.7 °F 57.0 °F 42% 29.69 in 10.0 mi SSE 12.7 mph - N/A   Clear
7:56 PM 79.0 °F - 57.0 °F 47% 29.71 in 10.0 mi SSE 12.7 mph 20.7 mph N/A   Clear
8:56 PM 78.1 °F - 57.0 °F 48% 29.74 in 10.0 mi SSE 13.8 mph - N/A   Clear
9:56 PM 75.0 °F - 57.0 °F 53% 29.74 in 10.0 mi SSE 17.3 mph 24.2 mph N/A   Clear
10:56 PM 73.9 °F - 57.0 °F 55% 29.75 in 10.0 mi SSE 15.0 mph - N/A   Clear
11:56 PM 72.0 °F - 57.9 °F 61% 29.75 in 10.0 mi SSE 15.0 mph 26.5 mph N/A   Clear